Погода в Бугрино

Россия / Ненецкий автономный округ     68°46′57″N   49°18′48″E
В апреле 2022 года жителям России запретили посещать сайт meteo.paraplan.net по решению Генеральной прокуратуры. Аудитория сайта уменьшилась в 10 раз. Владельцы сайта не видят смысла в поддержке погодного сервера в таких условиях. Сайт будет закрыт в октябре.
темп.,
°C
ветер,
м/с
пор.,
м/с
влажн.,
%
обл.,
%
осадки,
мм/ч
давл.,
гПа
погр.,
м
6 октября, чт
чт600:00+7ю4694100 0.1 101391
03:00+7ю4695100 0.1 101289
06:00+7ю5794100 0.1 1011133
09:00+7ю5796100 0.2 1009178
12:00+7ю4694100 0.1 1008167
15:00+7ю589698 0.1 1006232
18:00+7ююв7109278 0.0 1003217
21:00+7ююв101392100 0.0 1000318
7 октября, пт
пт700:00+7ююв111689100 0.0 997435
03:00+6ю111592100 0.0 994531
06:00+6ююв111595100 1.3 992616
09:00+6ююв101495100 2.3 990514
12:00+7ю81196100 0.6 990375
15:00+7ю5698100 1.9 989219
18:00+7ююв2298100 2.4 99027
21:00+7ссв2295100 5.9 99025
8 октября, сб
сб800:00+6ссз4596100 3.4 991175
03:00+6ссз5992100 7.4 992532
06:00+6сз61096100 1.8 994409
09:00+7сз71191100 2.2 996441
12:00+7зсз5786100 0.0 997291
15:00+7зюз5687100 0.0 998181
18:00+6юз57925 0.0 998155
21:00+6ююз6994100 0.1 997235
9 октября, вс
вс900:00+6ю71096100 0.1 995309
03:00+7ю81298100 1.8 993323
06:00+7ююз81398100 2.5 991386
09:00+7з6988100 5.0 990220
12:00+7юз91287100 0.1 991503
15:00+7юз9138692 0.3 990405
18:00+7юз12158465 0.3 990494
21:00+6юз121594100 1.4 9891038
10 октября, пн
пн1000:00+6юз161992100 0.7 9871135
03:00+6зюз14188685 1.2 987934
06:00+6з12168388 0.3 989786
09:00+7зсз9137734 0.3 991469
12:00+7зсз91278100 0.1 994583
15:00+6зсз101483100 0.4 996900
18:00+6зсз9138398 0.3 998619
21:00+6з9138735 0.4 1000519